Date String (YYYY-MM-DD hh:mm:ss) UTC,Instrument flags,absolute air pressure of the measurement (hPa),sample flow rate (lpm),inlet stack bypass flow (lpm),air temperature of the measurement (°C),ambient temperature measured by the external sensor (°C),aerosol sample conditioner tube jacket temperature (°C),OPC LED temperature (°C),internal box temperature (°C),relative humidity of the measurement (%),span deviation,mass concentration of particles derived from Lorenz-Mie calculation of OPC scattering (μg/m³),mass concentration of particles derived from Lorenz-Mie calculation of OPC scattering (μg/m³),mass concentration of particles derived from Lorenz-Mie calculation of OPC scattering (μg/m³)
DateTimeUTC,F1_M11,P_M11,Q1_M11,Q2_M11,T1_M11,T2_M11,T3_M11,T4_M11,T5_M11,U1_M11,ZSPAN_M11,X0_M11,X2_M11,X1_M11
2023-09-17 05:00:00,SystemResetWarning,0835.6,5.00,000.00,028.5,027.1,000.0,036.8,030.1,20.0,0002.2,0008.32,0004.96,0004.45
2023-09-17 05:01:00,SystemResetWarning,0835.6,5.00,000.00,028.5,027.1,000.0,036.8,030.1,20.1,0001.9,0008.46,0004.98,0004.44
2023-09-17 05:02:00,SystemResetWarning,0835.6,4.99,000.00,028.5,027.1,000.0,036.8,030.1,20.1,0000.4,0008.54,0004.98,0004.43
2023-09-17 05:03:00,SystemResetWarning,0835.6,4.99,000.00,028.5,027.1,000.0,036.8,030.1,19.9,0000.0,0008.46,0005.00,0004.44
2023-09-17 05:04:00,SystemResetWarning,0835.6,4.99,000.00,028.5,027.1,000.0,036.8,030.1,20.0,0000.6,0008.42,0004.99,0004.44
2023-09-17 05:05:00,SystemResetWarning,0835.6,5.00,000.00,028.5,027.2,000.0,036.8,030.1,19.9,0002.4,0008.41,0005.01,0004.44
2023-09-17 05:06:00,SystemResetWarning,0835.6,5.00,000.00,028.5,027.2,000.0,036.8,030.1,19.9,0002.2,0008.08,0004.99,0004.44
2023-09-17 05:07:00,SystemResetWarning,0835.7,5.00,000.00,028.5,027.2,000.0,036.8,030.2,19.9,0002.5,0007.97,0004.92,0004.44
2023-09-17 05:08:00,SystemResetWarning,0835.7,5.00,000.00,028.6,027.2,000.0,036.8,030.2,19.8,0002.7,0007.80,0004.85,0004.43
2023-09-17 05:09:00,SystemResetWarning,0835.6,5.01,000.00,028.6,027.2,000.0,036.8,030.2,19.8,0003.2,0007.76,0004.84,0004.45
2023-09-17 05:10:00,SystemResetWarning,0835.6,5.00,000.00,028.6,027.2,000.0,036.9,030.2,19.7,0000.9,0007.80,0004.85,0004.46
2023-09-17 05:11:00,SystemResetWarning,0835.6,5.00,000.00,028.6,027.2,000.0,036.9,030.2,19.8,0003.2,0007.80,0004.84,0004.46
2023-09-17 05:12:00,SystemResetWarning,0835.6,4.99,000.00,028.6,027.2,000.0,036.9,030.2,19.7,0001.3,0007.69,0004.81,0004.47
2023-09-17 05:13:00,SystemResetWarning,0835.6,5.00,000.00,028.6,027.2,000.0,036.9,030.2,19.6,0000.0,0007.53,0004.78,0004.47
2023-09-17 05:14:00,SystemResetWarning,0835.6,5.00,000.00,028.6,027.2,000.0,036.9,030.2,19.7,0000.0,0007.48,0004.76,0004.47
2023-09-17 05:15:00,SystemResetWarning,0835.6,4.99,000.00,028.6,027.2,000.0,036.9,030.2,19.7,0001.2,0007.64,0004.79,0004.48
2023-09-17 05:16:00,SystemResetWarning,0835.6,5.00,000.00,028.6,027.2,000.0,036.9,030.2,19.6,0000.0,0007.83,0004.79,0004.48
2023-09-17 05:17:00,SystemResetWarning,0835.6,5.01,000.00,028.6,027.2,000.0,036.9,030.2,19.5,0000.0,0007.93,0004.83,0004.48
2023-09-17 05:18:00,SystemResetWarning,0835.6,5.00,000.00,028.6,027.3,000.0,036.9,030.2,19.6,0000.0,0007.94,0004.83,0004.48
2023-09-17 05:19:00,SystemResetWarning,0835.6,4.99,000.00,028.7,027.3,000.0,037.0,030.2,19.6,0000.0,0008.20,0004.86,0004.48
2023-09-17 05:20:00,SystemResetWarning,0835.6,4.99,000.00,028.7,027.3,000.0,037.0,030.2,19.6,0000.0,0008.22,0004.87,0004.47
2023-09-17 05:21:00,SystemResetWarning,0835.6,5.00,000.00,028.7,027.3,000.0,037.0,030.3,19.5,0000.2,0008.20,0004.87,0004.46
2023-09-17 05:22:00,SystemResetWarning,0835.6,5.01,000.00,028.7,027.3,000.0,037.0,030.3,19.6,0000.3,0008.54,0004.91,0004.47
2023-09-17 05:23:00,SystemResetWarning,0835.6,5.01,000.00,028.7,027.3,000.0,037.0,030.3,19.5,0001.3,0008.90,0004.94,0004.45
2023-09-17 05:24:00,SystemResetWarning,0835.6,5.00,000.00,028.7,027.3,000.0,037.0,030.3,19.5,0001.8,0008.94,0004.97,0004.46
2023-09-17 05:25:00,SystemResetWarning,0835.6,5.00,000.00,028.7,027.3,000.0,037.0,030.3,19.4,0002.2,0009.05,0005.01,0004.47
2023-09-17 05:26:00,SystemResetWarning,0835.6,4.99,000.00,028.7,027.3,000.0,037.0,030.3,19.4,0002.5,0009.04,0005.01,0004.48
2023-09-17 05:27:00,SystemResetWarning,0835.6,4.99,000.00,028.7,027.3,000.0,037.0,030.3,19.4,0002.5,0008.82,0005.04,0004.50
2023-09-17 05:28:00,SystemResetWarning,0835.6,4.99,000.00,028.7,027.3,000.0,037.0,030.3,19.5,0002.5,0008.75,0005.01,0004.50
2023-09-17 05:29:00,SystemResetWarning,0835.6,5.02,000.00,028.7,027.3,000.0,037.0,030.3,19.3,0001.7,0008.75,0005.01,0004.51
2023-09-17 05:30:00,SystemResetWarning,0835.6,5.00,000.00,028.7,027.3,000.0,037.1,030.3,19.3,0001.8,0008.56,0005.02,0004.50
2023-09-17 05:31:00,SystemResetWarning,0835.6,4.99,000.00,028.7,027.3,000.0,037.1,030.3,19.4,0001.3,0008.75,0005.02,0004.50
2023-09-17 05:32:00,SystemResetWarning,0835.6,4.99,000.00,028.7,027.3,000.0,037.1,030.3,19.5,0000.4,0008.84,0005.00,0004.47
2023-09-17 05:33:00,SystemResetWarning,0835.6,5.01,000.00,028.7,027.3,000.0,037.1,030.3,19.4,0000.0,0008.82,0004.97,0004.47
2023-09-17 05:34:00,SystemResetWarning,0835.5,5.01,000.00,028.8,027.3,000.0,037.1,030.3,19.4,0000.0,0008.43,0004.96,0004.48
2023-09-17 05:35:00,SystemResetWarning,0835.6,5.00,000.00,028.8,027.3,000.0,037.1,030.3,19.4,0000.0,0008.35,0004.93,0004.47
2023-09-17 05:36:00,SystemResetWarning,0835.6,4.99,000.00,028.8,027.3,000.0,037.1,030.3,19.4,0000.0,0008.32,0004.92,0004.46
2023-09-17 05:37:00,SystemResetWarning,0835.6,4.99,000.00,028.8,027.3,000.0,037.1,030.3,19.5,0000.0,0008.26,0004.89,0004.44
2023-09-17 05:38:00,SystemResetWarning,0835.6,5.00,000.00,028.8,027.3,000.0,037.1,030.3,19.4,0001.0,0008.20,0004.85,0004.42
2023-09-17 05:39:00,SystemResetWarning,0835.6,4.99,000.00,028.8,027.3,000.0,037.1,030.3,19.2,0000.0,0008.17,0004.84,0004.42
2023-09-17 05:40:00,SystemResetWarning,0835.6,5.02,000.00,028.8,027.3,000.0,037.1,030.3,19.2,0000.0,0008.45,0004.81,0004.42
2023-09-17 05:41:00,SystemResetWarning,0835.6,4.99,000.00,028.8,027.3,000.0,037.1,030.3,19.3,0000.0,0008.76,0004.78,0004.41
2023-09-17 05:42:00,SystemResetWarning,0835.6,4.99,000.00,028.8,027.3,000.0,037.1,030.4,19.2,0000.0,0008.55,0004.77,0004.42
2023-09-17 05:43:00,SystemResetWarning,0835.6,5.00,000.00,028.8,027.3,000.0,037.1,030.3,19.1,0000.0,0008.48,0004.78,0004.43
2023-09-17 05:44:00,SystemResetWarning,0835.6,5.02,000.00,028.8,027.3,000.0,037.1,030.4,19.1,0000.0,0008.25,0004.75,0004.44
2023-09-17 05:45:00,SystemResetWarning,0835.6,5.00,000.00,028.8,027.3,000.0,037.2,030.4,19.1,0000.0,0008.10,0004.73,0004.43
2023-09-17 05:46:00,SystemResetWarning,0835.6,4.99,000.00,028.8,027.3,000.0,037.2,030.4,19.1,0000.0,0008.07,0004.72,0004.43
2023-09-17 05:47:00,SystemResetWarning,0835.6,5.00,000.00,028.8,027.4,000.0,037.2,030.4,19.1,0000.0,0008.44,0004.73,0004.44
2023-09-17 05:48:00,SystemResetWarning,0835.6,5.01,000.00,028.8,027.4,000.0,037.2,030.4,19.2,0000.0,0008.55,0004.74,0004.45
2023-09-17 05:49:00,SystemResetWarning,0835.6,5.00,000.00,028.8,027.4,000.0,037.2,030.4,19.0,0000.0,0008.56,0004.75,0004.45
2023-09-17 05:50:00,SystemResetWarning,0835.6,5.01,000.00,028.8,027.4,000.0,037.2,030.4,19.0,0000.0,0008.59,0004.76,0004.44
2023-09-17 05:51:00,SystemResetWarning,0835.6,5.01,000.00,028.8,027.4,000.0,037.2,030.4,18.9,0000.0,0008.52,0004.78,0004.43
2023-09-17 05:52:00,SystemResetWarning,0835.6,5.01,000.00,028.8,027.4,000.0,037.2,030.4,18.9,0000.0,0008.03,0004.82,0004.44
2023-09-17 05:53:00,SystemResetWarning,0835.6,5.00,000.00,028.8,027.4,000.0,037.2,030.4,18.8,0000.0,0008.15,0004.85,0004.44
2023-09-17 05:54:00,SystemResetWarning,0835.6,4.99,000.00,028.8,027.4,000.0,037.2,030.4,18.8,0000.0,0008.12,0004.84,0004.44
2023-09-17 05:55:00,SystemResetWarning,0835.6,4.99,000.00,028.8,027.4,000.0,037.2,030.4,18.8,0000.0,0008.16,0004.86,0004.44
2023-09-17 05:56:00,SystemResetWarning,0835.6,4.99,000.00,028.9,027.4,000.0,037.2,030.4,18.7,0000.0,0008.14,0004.86,0004.44
2023-09-17 05:57:00,SystemResetWarning,0835.6,5.00,000.00,028.8,027.3,000.0,037.2,030.4,18.8,0000.0,0008.22,0004.88,0004.44
2023-09-17 05:58:00,SystemResetWarning,0835.6,5.00,000.00,028.9,027.4,000.0,037.2,030.4,18.8,0000.0,0008.06,0004.87,0004.43
2023-09-17 05:59:00,SystemResetWarning,0835.6,4.99,000.00,028.9,027.4,000.0,037.2,030.4,18.6,0000.0,0007.75,0004.85,0004.43
